Viladecans, Spain
Current Conditions -  °F | °C
As of 9:00 AM on Wednesday 26 Nov 2014 (Local Time) from LEBL Reporting Station
Scattered Clouds Scattered Clouds  
Wind Chill: 59°   Ceiling: Unl
Heat Index: 59°   Visibility: 4mi
Dew Point: 57°   Wind: 5mph
Humidity: 94%   Direction: 340°NNW
Pressure: 29.88"   Gusts: NA
Location:  41.31°N, 2.01°E
Report Text: LEBL 260800Z 34004KT 7000 SCT022 15/14 Q1012 TEMPO 4000 SHRA FEW020TCU
Loading
Personal Weather Stations






























Interactive Weather Map New forecast layout! Learn more

10-Day Weather Forecast

Advertisements
Track Severe Weather on mobile